Location: Franzen
(48.6167°N, 15.3833°E)
Time: 16:24:28
(UTC+00:00)

Cosmos 2219 - Pass Details

Date: 01 August 2021
Orbit: 834 x 860 km, 71.1° (Epoch: 18 September)

Event Time Altitude Azimuth Distance (km) Brightness Sun altitude
Exits shadow 22:01:05 31° 111° (ESE) 1,477 4.1 -22.1°
Maximum altitude 22:01:24 31° 104° (ESE) 1,471 4.2 -22.1°
Drops below altitude 10° 22:06:21 10° 45° (NE) 2,504 6.0 -22.3°
Sets 22:09:04 0° 35° (NE) 3,446 7.0 -22.5°
